When you browse on this site, cookies collect data to enhance your experience and personalize the content and advertising you see.
Visit our Privacy Policy to learn more. By continuing to use the site, you agree to this use of cookies and data.
  • In Hungary
  • List of Countries
  • For 7 days
  • Water Temperature
  • Satellite Maps
  • Weather Map
  • News
  • Weather Widgets
  • user-avatar
    Login

    Hourly Weather Houyu

    Today, 13 December, Thursday

    Time Temperature Precipitation Wind Pressure Humidity
    00:00 +12°C° 0 mm 5 mps 771 mmHg 79%
    01:00 +12°C° 0 mm 5 mps 770 mmHg 80%
    02:00 +12°C° 0 mm 4 mps 770 mmHg 80%
    03:00 +12°C° 0.1 mm 4 mps 770 mmHg 81%
    04:00 +12°C° 0.1 mm 4 mps 770 mmHg 82%
    05:00 +12°C° 0.1 mm 4 mps 770 mmHg 83%
    06:00 +12°C° 0.3 mm 4 mps 770 mmHg 84%
    07:00 +12°C° 0.3 mm 4 mps 771 mmHg 85%
    08:00 +11°C° 0 mm 4 mps 771 mmHg 85%
    09:00 +12°C° 0.4 mm 4 mps 771 mmHg 86%
    10:00 +12°C° 0.4 mm 4 mps 771 mmHg 86%
    11:00 +12°C° 0.4 mm 4 mps 771 mmHg 86%
    12:00 +12°C° 0.2 mm 4 mps 771 mmHg 86%
    13:00 +12°C° 0.2 mm 4 mps 771 mmHg 86%
    14:00 +13°C° 0.2 mm 4 mps 770 mmHg 85%
    15:00 +13°C° 0.1 mm 4 mps 770 mmHg 86%
    16:00 +13°C° 0.1 mm 4 mps 770 mmHg 87%
    17:00 +13°C° 0.1 mm 4 mps 770 mmHg 88%
    18:00 +13°C° 0.1 mm 5 mps 770 mmHg 88%
    19:00 +13°C° 0.1 mm 5 mps 770 mmHg 89%
    20:00 +12°C° 0 mm 5 mps 771 mmHg 88%
    21:00 +12°C° 0.2 mm 5 mps 771 mmHg 89%
    22:00 +12°C° 0.2 mm 5 mps 771 mmHg 90%
    23:00 +12°C° 0.2 mm 5 mps 771 mmHg 91%

    Tomorrow, 14 December, Friday

    Time Temperature Precipitation Wind Pressure Humidity
    00:00 +12°C° 0.1 mm 5 mps 771 mmHg 91%
    01:00 +12°C° 0.1 mm 5 mps 771 mmHg 91%
    02:00 +12°C° 0.1 mm 5 mps 771 mmHg 91%
    03:00 +12°C° 0.1 mm 5 mps 771 mmHg 91%
    04:00 +12°C° 0.1 mm 5 mps 771 mmHg 91%
    05:00 +12°C° 0.1 mm 5 mps 771 mmHg 91%
    06:00 +12°C° 0 mm 5 mps 771 mmHg 90%
    07:00 +12°C° 0 mm 5 mps 771 mmHg 90%
    08:00 +13°C° 0 mm 6 mps 771 mmHg 90%
    09:00 +13°C° 0.1 mm 6 mps 771 mmHg 88%
    10:00 +13°C° 0.1 mm 6 mps 771 mmHg 87%
    11:00 +14°C° 0.1 mm 6 mps 771 mmHg 85%
    12:00 +14°C° 0 mm 5 mps 770 mmHg 85%
    13:00 +14°C° 0 mm 5 mps 770 mmHg 84%
    14:00 +14°C° 0 mm 5 mps 770 mmHg 84%
    15:00 +14°C° 0 mm 5 mps 770 mmHg 85%
    16:00 +14°C° 0 mm 5 mps 770 mmHg 86%
    17:00 +14°C° 0 mm 5 mps 770 mmHg 87%
    18:00 +14°C° 0 mm 5 mps 770 mmHg 87%
    19:00 +13°C° 0 mm 5 mps 770 mmHg 88%
    20:00 +13°C° 0 mm 5 mps 770 mmHg 89%
    21:00 +13°C° 0 mm 5 mps 770 mmHg 89%
    22:00 +13°C° 0 mm 5 mps 771 mmHg 89%
    23:00 +13°C° 0 mm 5 mps 771 mmHg 89%

    Day after tomorrow, 15 December, Saturday

    Time Temperature Precipitation Wind Pressure Humidity
    00:00 +13°C° 0 mm 5 mps 771 mmHg 89%
    01:00 +13°C° 0 mm 5 mps 770 mmHg 89%
    02:00 +13°C° 0 mm 5 mps 770 mmHg 89%
    03:00 +13°C° 0.1 mm 5 mps 770 mmHg 88%
    04:00 +13°C° 0.1 mm 5 mps 770 mmHg 88%
    05:00 +13°C° 0.1 mm 4 mps 769 mmHg 88%
    06:00 +14°C° 0.1 mm 4 mps 770 mmHg 88%
    07:00 +14°C° 0.1 mm 4 mps 770 mmHg 87%
    08:00 +14°C° 0.1 mm 4 mps 770 mmHg 87%
    09:00 +15°C° 0 mm 4 mps 770 mmHg 84%
    10:00 +16°C° 0 mm 5 mps 770 mmHg 80%
    11:00 +17°C° 0 mm 5 mps 770 mmHg 77%
    12:00 +17°C° 0 mm 5 mps 769 mmHg 78%
    13:00 +18°C° 0 mm 4 mps 768 mmHg 79%
    14:00 +18°C° 0 mm 4 mps 768 mmHg 80%
    15:00 +17°C° 0 mm 4 mps 768 mmHg 83%
    16:00 +17°C° 0 mm 4 mps 768 mmHg 85%
    17:00 +17°C° 0 mm 4 mps 767 mmHg 87%
    18:00 +17°C° 0 mm 4 mps 768 mmHg 88%
    19:00 +15°C° 0 mm 4 mps 768 mmHg 89%
    20:00 +15°C° 0 mm 4 mps 768 mmHg 90%
    21:00 +16°C° 0 mm 3 mps 768 mmHg 91%
    22:00 +16°C° 0 mm 3 mps 768 mmHg 91%
    23:00 +16°C° 0 mm 3 mps 768 mmHg 91%

    16 December, Sunday

    Time Temperature Precipitation Wind Pressure Humidity
    00:00 +16°C° 0 mm 3 mps 768 mmHg 91%
    01:00 +16°C° 0 mm 3 mps 767 mmHg 92%
    02:00 +16°C° 0 mm 2 mps 767 mmHg 92%
    03:00 +16°C° 0 mm 2 mps 767 mmHg 92%
    04:00 +15°C° 0 mm 2 mps 767 mmHg 92%
    05:00 +15°C° 0 mm 2 mps 767 mmHg 92%
    06:00 +16°C° 0 mm 2 mps 767 mmHg 91%
    07:00 +16°C° 0 mm 2 mps 767 mmHg 89%
    08:00 +16°C° 0 mm 2 mps 768 mmHg 88%
    09:00 +18°C° 0 mm 2 mps 768 mmHg 81%
    10:00 +20°C° 0 mm 2 mps 768 mmHg 75%
    11:00 +21°C° 0 mm 2 mps 768 mmHg 69%
    12:00 +21°C° 0.1 mm 2 mps 767 mmHg 71%
    13:00 +21°C° 0.1 mm 2 mps 766 mmHg 72%
    14:00 +20°C° 0.1 mm 3 mps 766 mmHg 74%
    15:00 +20°C° 0.1 mm 3 mps 766 mmHg 78%
    16:00 +19°C° 0.1 mm 3 mps 766 mmHg 81%
    17:00 +18°C° 0.1 mm 3 mps 766 mmHg 85%
    18:00 +18°C° 0.1 mm 3 mps 766 mmHg 87%
    19:00 +17°C° 0.1 mm 3 mps 767 mmHg 89%
    20:00 +16°C° 0.1 mm 3 mps 767 mmHg 90%
    21:00 +16°C° 0.1 mm 3 mps 768 mmHg 90%
    22:00 +16°C° 0.1 mm 3 mps 768 mmHg 90%
    23:00 +16°C° 0.1 mm 3 mps 768 mmHg 90%

    17 December, Monday

    Time Temperature Precipitation Wind Pressure Humidity
    00:00 +16°C° 0.1 mm 3 mps 768 mmHg 90%
    01:00 +14°C° 0.1 mm 3 mps 768 mmHg 89%
    02:00 +14°C° 0.1 mm 4 mps 767 mmHg 89%
    03:00 +14°C° 0 mm 3 mps 767 mmHg 88%
    04:00 +13°C° 0 mm 3 mps 767 mmHg 87%
    05:00 +13°C° 0 mm 3 mps 767 mmHg 86%
    06:00 +13°C° 0 mm 3 mps 768 mmHg 84%
    07:00 +13°C° 0 mm 3 mps 769 mmHg 82%
    08:00 +13°C° 0 mm 3 mps 769 mmHg 80%
    09:00 +16°C° 0 mm 3 mps 769 mmHg 71%
    10:00 +17°C° 0 mm 3 mps 769 mmHg 62%
    11:00 +19°C° 0 mm 3 mps 769 mmHg 54%
    12:00 +19°C° 0 mm 3 mps 768 mmHg 51%
    13:00 +20°C° 0 mm 3 mps 767 mmHg 49%
    14:00 +20°C° 0 mm 3 mps 767 mmHg 46%
    15:00 +19°C° 0 mm 3 mps 767 mmHg 52%
    16:00 +17°C° 0 mm 3 mps 767 mmHg 58%
    17:00 +16°C° 0 mm 3 mps 767 mmHg 64%
    18:00 +14°C° 0 mm 3 mps 767 mmHg 66%
    19:00 +14°C° 0 mm 3 mps 768 mmHg 68%
    20:00 +13°C° 0 mm 3 mps 768 mmHg 71%
    21:00 +14°C° 0 mm 2 mps 768 mmHg 72%
    22:00 +13°C° 0 mm 2 mps 768 mmHg 73%
    23:00 +13°C° 0 mm 2 mps 768 mmHg 75%

    18 December, Tuesday

    Time Temperature Precipitation Wind Pressure Humidity
    00:00 +13°C° 0 mm 2 mps 768 mmHg 76%
    01:00 +12°C° 0 mm 2 mps 768 mmHg 77%
    02:00 +12°C° 0 mm 2 mps 768 mmHg 78%
    03:00 +12°C° 0 mm 2 mps 767 mmHg 78%
    04:00 +12°C° 0 mm 2 mps 767 mmHg 78%
    05:00 +10°C° 0 mm 2 mps 767 mmHg 79%
    06:00 +12°C° 0 mm 2 mps 768 mmHg 77%
    07:00 +13°C° 0 mm 2 mps 768 mmHg 75%
    08:00 +13°C° 0 mm 2 mps 768 mmHg 73%
    09:00 +15°C° 0 mm 2 mps 768 mmHg 67%
    10:00 +17°C° 0 mm 2 mps 768 mmHg 61%
    11:00 +19°C° 0 mm 2 mps 768 mmHg 55%
    12:00 +19°C° 0 mm 3 mps 767 mmHg 54%
    13:00 +20°C° 0 mm 3 mps 766 mmHg 52%
    14:00 +20°C° 0 mm 3 mps 766 mmHg 50%
    15:00 +19°C° 0 mm 3 mps 766 mmHg 56%
    16:00 +18°C° 0 mm 3 mps 766 mmHg 61%
    17:00 +16°C° 0 mm 3 mps 766 mmHg 66%
    18:00 +16°C° 0 mm 3 mps 766 mmHg 68%
    19:00 +14°C° 0 mm 3 mps 767 mmHg 70%
    20:00 +13°C° 0 mm 3 mps 767 mmHg 73%
    21:00 +13°C° 0 mm 3 mps 767 mmHg 73%
    22:00 +13°C° 0 mm 3 mps 767 mmHg 74%
    23:00 +13°C° 0 mm 3 mps 767 mmHg 75%
    Show more